sat.trackr.live / text

‹ back to catalog

STARLINK-35665

NORAD 66390 · 2025-257L

PAYLOAD ACTIVE UNKNOWN

§ Identity

Operator
Country
US
Launch date
2025-11-09
Launch site
AFETR
Launch vehicle
Mass (kg)
RCS (m²)

Purposes: comms

External: N2YO · Heavens-Above · Gunter

§ Orbital elements

Epoch: 2026-09-20T14:18:27.834336Z

Period
93.85 min
Inclination
53.1589°
Eccentricity
0.0000744
Mean motion
15.34401221 rev/d
Perigee alt
462.2 km
Apogee alt
463.2 km
Semi-major
6,840.8 km
B*
5.3490e-4
RAAN
28.9157°
Arg perigee
77.4735°
Mean anomaly
282.6351°
Rev number
4,971

§ Raw data

STARLINK-356651 66390U 25257L   26263.59615549  .00017740  00000+0  53490-3 0  99902 66390  53.1589  28.9157 0000744  77.4735 282.6351 15.34401221 49718

JSON: /api/v1/satellites/66390 · /tle

For live sub-satellite position, see the globe view (requires WebGL).

§ Visibility from observer

Set your observer location to see the next 7 days of passes ≥ 10°. The values pass through the URL so the page stays shareable.

No JS? Fill the form by hand. The geolocation button needs JavaScript.